Change the Weather History Date:

Saturday, May 10, 2014

  Actual Average Record
Temperature  
Mean Temperature 80 °F -  
Max Temperature 98 °F 88 °F 102 °F (2000)
Min Temperature 63 °F 59 °F 48 °F (1997)
Cooling Degree Days 14    
Growing Degree Days 30 (Base 50)    
Moisture  
Dew Point 26 °F    
Average Humidity 21    
Maximum Humidity 72    
Minimum Humidity 4    
Precipitation  
Precipitation 0.00 in - - ()
Sea Level Pressure  
Sea Level Pressure 29.69 in    
Wind  
Wind Speed 11 mph (SSW)    
Max Wind Speed 18 mph    
Max Gust Speed 28 mph    
Visibility 10 miles    
Events      
Averages and records for this station are not official NWS values.
T = Trace of Precipitation, MM = Missing Value Source: NWS Daily Summary

Daily Weather History Graph

Daily Weather History Graph

Search for Another Location

Airport or City:

Trip Planner

Search our weather history database for the weather conditions in past years. The results will help you decide how hot, cold, wet, or windy it might be!

Date:

Astronomy

May. 10, 2014 Rise Set
Actual Time 6:59 AM CDT 8:36 PM CDT
Civil Twilight 6:33 AM CDT 9:02 PM CDT
Nautical Twilight 6:02 AM CDT 9:34 PM CDT
Astronomical Twilight 5:29 AM CDT 10:07 PM CDT
Moon 4:50 PM CDT (5/10) 4:16 AM CDT (5/10)
Length of Visible Light 14h 29m
Length of Day
13h 36m
Waxing Gibbous, 82% of the Moon is Illuminated
May 10
Waxing Gibbous
May 14
Full
May 21
Last Quarter
May 28
New
Jun 5
First Quarter

Hourly Weather History & Observations

Time (CDT) Temp. Dew Point Humidity Pressure Visibility Wind Dir Wind Speed Gust Speed Precip Events Conditions
12:53 AM 70.0 °F 25.0 °F 18% 29.76 in 10.0 mi South 10.4 mph - N/A   Clear
1:53 AM 69.1 °F 37.0 °F 31% 29.76 in 10.0 mi SSE 12.7 mph - N/A   Clear
2:53 AM 64.0 °F 46.0 °F 52% 29.76 in 10.0 mi SW 8.1 mph - N/A   Clear
3:53 AM 64.0 °F 52.0 °F 65% 29.75 in 10.0 mi South 10.4 mph - N/A   Clear
4:53 AM 63.0 °F 54.0 °F 72% 29.74 in 10.0 mi South 11.5 mph - N/A   Clear
6:53 AM 64.0 °F 28.0 °F 26% 29.75 in 10.0 mi SW 13.8 mph - N/A   Clear
7:53 AM 66.9 °F 21.9 °F 18% 29.76 in 10.0 mi SW 15.0 mph - N/A   Unknown
8:53 AM 75.9 °F 19.9 °F 12% 29.77 in 10.0 mi SW 9.2 mph - N/A   Clear
9:53 AM 82.9 °F 16.0 °F 8% 29.79 in 10.0 mi WSW 10.4 mph - N/A   Clear
10:53 AM 87.1 °F 12.0 °F 6% 29.78 in 10.0 mi WSW 5.8 mph - N/A   Clear
11:53 AM 87.1 °F 10.0 °F 6% 29.77 in 10.0 mi Variable 3.5 mph - N/A   Clear
12:53 PM 90.0 °F 9.0 °F 5% 29.74 in 10.0 mi South 9.2 mph - N/A   Clear
1:53 PM 91.9 °F 9.0 °F 5% 29.70 in 10.0 mi SW 9.2 mph 18.4 mph N/A   Clear
2:53 PM 93.0 °F 9.0 °F 4% 29.67 in 10.0 mi Variable 3.5 mph - N/A   Clear
4:53 PM 96.1 °F 16.0 °F 5% 29.59 in 10.0 mi SSW 11.5 mph 26.5 mph N/A   Scattered Clouds
5:53 PM 96.1 °F 17.1 °F 6% 29.57 in 10.0 mi WSW 16.1 mph 27.6 mph N/A   Scattered Clouds
6:53 PM 96.1 °F 19.9 °F 6% 29.55 in 10.0 mi SW 11.5 mph 19.6 mph N/A   Scattered Clouds
7:53 PM 93.0 °F 18.0 °F 6% 29.55 in 10.0 mi South 16.1 mph 23.0 mph N/A   Mostly Cloudy
8:53 PM 88.0 °F 34.0 °F 15% 29.57 in 10.0 mi SSE 10.4 mph - N/A   Partly Cloudy
10:53 PM 82.0 °F 51.1 °F 34% 29.60 in 10.0 mi SE 15.0 mph 26.5 mph N/A   Clear
11:53 PM 80.1 °F 51.1 °F 36% 29.60 in 10.0 mi SSE 18.4 mph - N/A   Clear